Weather History for Lakeville, MN

Change the Weather History Date:

Saturday, November 10, 2012

  Actual Average Record
Temperature  
Mean Temperature 56 °F -  
Max Temperature 69 °F 40 °F 69 °F (2012)
Min Temperature 42 °F 27 °F 11 °F (1950)
Degree Days  
Heating Degree Days 10    
Growing Degree Days 6 (Base 50)    
Moisture  
Dew Point 49 °F    
Average Humidity 84    
Maximum Humidity 100    
Minimum Humidity 56    
Precipitation  
Precipitation 0.19 in - - ()
Sea Level Pressure  
Sea Level Pressure 29.63 in    
Wind  
Wind Speed 12 mph (SE)    
Max Wind Speed 21 mph    
Max Gust Speed 29 mph    
Visibility 6 miles    
Events Rain , Thunderstorm    
Averages and records for this station are not official NWS values.
T = Trace of Precipitation, MM = Missing Value Source: NWS Daily Summary

Daily Weather History Graph

Daily Weather History Graph

Search for Another Location

Airport:

Trip Planner

Search our weather history database for the weather conditions in past years. The results will help you decide how hot, cold, wet, or windy it might be!

Date:

Astronomy

Nov. 10, 2012 Rise Set
Actual Time 7:03 AM CST 4:49 PM CST
Civil Twilight 6:32 AM CST 5:20 PM CST
Nautical Twilight 5:57 AM CST 5:55 PM CST
Astronomical Twilight 5:23 AM CST 6:30 PM CST
Moon 3:01 AM CST (11/10) 2:43 PM CST (11/10)
Length of Visible Light 10h 48m
Length of Day
9h 46m
Waning Crescent, 14% of the Moon is Illuminated
Nov 10
Waning Crescent
Nov 13
New
Nov 20
First Quarter
Nov 28
Full
Dec 6
Last Quarter

Hourly Weather History & Observations

Time (CST) Temp. Windchill Dew Point Humidity Pressure Visibility Wind Dir Wind Speed Gust Speed Precip Events Conditions
12:11 AM 42.8 °F 36.2 °F 39.2 °F 87% 29.90 in 3.0 mi East 12.7 mph - N/A   Mostly Cloudy
12:31 AM 42.8 °F 37.0 °F 41.0 °F 93% 29.89 in 3.0 mi East 10.4 mph 13.8 mph N/A   Scattered Clouds
12:51 AM 42.8 °F 36.2 °F 41.0 °F 93% 29.87 in 3.0 mi East 12.7 mph 20.7 mph N/A   Mostly Cloudy
1:11 AM 42.8 °F 35.1 °F 41.0 °F 93% 29.86 in 3.0 mi East 16.1 mph - N/A   Overcast
1:31 AM 42.8 °F 35.4 °F 41.0 °F 93% 29.86 in 3.0 mi East 15.0 mph - N/A   Overcast
1:51 AM 42.8 °F 36.6 °F 41.0 °F 93% 29.85 in 3.0 mi East 11.5 mph - N/A   Overcast
2:11 AM 42.8 °F 35.4 °F 41.0 °F 93% 29.85 in 3.0 mi East 15.0 mph - N/A   Overcast
2:31 AM 42.8 °F 35.8 °F 41.0 °F 93% 29.83 in 3.0 mi East 13.8 mph 18.4 mph N/A   Overcast
2:51 AM 42.8 °F 35.4 °F 41.0 °F 93% 29.82 in 3.0 mi East 15.0 mph - N/A Thunderstorm Overcast
3:11 AM 42.8 °F 35.1 °F 42.8 °F 100% 29.81 in 2.5 mi East 16.1 mph - 0.02 in Rain , Thunderstorm Heavy Thunderstorms and Rain
3:31 AM 42.8 °F 36.2 °F 42.8 °F 100% 29.81 in 2.5 mi East 12.7 mph - 0.08 in Rain , Thunderstorm Light Thunderstorms and Rain
3:51 AM 42.8 °F 35.8 °F 42.8 °F 100% 29.80 in 3.0 mi East 13.8 mph - 0.13 in Thunderstorm Overcast
4:11 AM 42.8 °F 35.4 °F 42.8 °F 100% 29.79 in 2.5 mi East 15.0 mph - N/A Rain Light Rain
4:31 AM 42.8 °F 35.8 °F 42.8 °F 100% 29.78 in 2.5 mi East 13.8 mph - N/A   Overcast
4:51 AM 42.8 °F 35.1 °F 42.8 °F 100% 29.77 in 2.5 mi ESE 16.1 mph 21.9 mph N/A   Overcast
5:11 AM 42.8 °F 35.4 °F 42.8 °F 100% 29.76 in 2.5 mi ESE 15.0 mph - N/A   Overcast
6:31 AM 44.6 °F 38.1 °F 42.8 °F 93% 29.74 in 2.5 mi East 13.8 mph - N/A   Overcast
6:52 AM 44.6 °F 38.1 °F 42.8 °F 93% 29.73 in 1.8 mi ESE 13.8 mph - N/A   Overcast
7:11 AM 44.6 °F 38.4 °F 42.8 °F 93% 29.72 in 1.5 mi East 12.7 mph - N/A   Overcast
7:31 AM 44.6 °F 38.1 °F 44.6 °F 100% 29.71 in 1.5 mi ESE 13.8 mph - N/A   Overcast
7:52 AM 44.6 °F 38.8 °F 44.6 °F 100% 29.71 in 1.8 mi ESE 11.5 mph - N/A   Overcast
8:11 AM 44.6 °F 39.2 °F 44.6 °F 100% 29.71 in 1.2 mi ESE 10.4 mph - N/A   Overcast
8:31 AM 44.6 °F 38.8 °F 44.6 °F 100% 29.70 in 1.0 mi ESE 11.5 mph - N/A Rain Rain
8:52 AM 44.6 °F 38.4 °F 44.6 °F 100% 29.69 in 1.2 mi ESE 12.7 mph - N/A   Overcast
9:11 AM 44.6 °F 39.2 °F 44.6 °F 100% 29.68 in 1.5 mi East 10.4 mph - N/A   Overcast
9:31 AM 46.4 °F 41.5 °F 44.6 °F 93% 29.67 in 1.5 mi East 10.4 mph - N/A   Overcast
9:52 AM 46.4 °F 41.9 °F 46.4 °F 100% 29.66 in 1.5 mi ESE 9.2 mph - N/A   Mostly Cloudy
10:11 AM 46.4 °F 42.4 °F 46.4 °F 100% 29.65 in 1.8 mi ESE 8.1 mph - N/A   Mostly Cloudy
10:31 AM 46.4 °F 41.9 °F 46.4 °F 100% 29.64 in 2.0 mi ESE 9.2 mph - N/A   Mostly Cloudy
10:51 AM 48.2 °F - 48.2 °F 100% 29.63 in 2.0 mi ESE 9.2 mph - N/A   Mist
11:11 AM 50.0 °F - 48.2 °F 94% 29.61 in 2.5 mi ESE 6.9 mph - N/A   Scattered Clouds
11:31 AM 51.8 °F - 50.0 °F 94% 29.60 in 3.0 mi ESE 8.1 mph - N/A   Overcast
11:51 AM 55.4 °F - 51.8 °F 88% 29.58 in 5.0 mi SE 10.4 mph - N/A   Overcast
12:11 PM 57.2 °F - 53.6 °F 88% 29.56 in 7.0 mi SE 9.2 mph - N/A   Overcast
12:31 PM 60.8 °F - 55.4 °F 82% 29.55 in 10.0 mi SSE 12.7 mph 18.4 mph N/A   Mostly Cloudy
12:51 PM 62.6 °F - 55.4 °F 77% 29.55 in 10.0 mi South 11.5 mph 19.6 mph N/A   Overcast
1:11 PM 64.4 °F - 55.4 °F 73% 29.54 in 10.0 mi SSE 15.0 mph 19.6 mph N/A   Mostly Cloudy
1:31 PM 66.2 °F - 55.4 °F 68% 29.54 in 10.0 mi South 13.8 mph 24.2 mph N/A   Scattered Clouds
1:51 PM 66.2 °F - 55.4 °F 68% 29.53 in 10.0 mi South 12.7 mph 20.7 mph N/A   Clear
2:11 PM 68.0 °F - 55.4 °F 64% 29.52 in 10.0 mi South 13.8 mph 19.6 mph N/A   Clear
2:31 PM 69.8 °F - 57.2 °F 64% 29.52 in 10.0 mi South 10.4 mph - N/A   Clear
2:51 PM 69.8 °F - 55.4 °F 60% 29.51 in 10.0 mi South 10.4 mph 16.1 mph N/A   Clear
3:11 PM 69.8 °F - 55.4 °F 60% 29.50 in 10.0 mi South 9.2 mph 18.4 mph N/A   Clear
3:31 PM 69.8 °F - 53.6 °F 56% 29.51 in 10.0 mi South 11.5 mph 23.0 mph N/A   Clear
3:51 PM 69.8 °F - 53.6 °F 56% 29.51 in 10.0 mi South 13.8 mph 17.3 mph N/A   Clear
4:11 PM 69.8 °F - 53.6 °F 56% 29.50 in 10.0 mi South 9.2 mph - N/A   Clear
4:31 PM 68.0 °F - 53.6 °F 60% 29.50 in 10.0 mi South 5.8 mph - N/A   Clear
4:51 PM 66.2 °F - 53.6 °F 64% 29.50 in 10.0 mi South 5.8 mph - N/A   Clear
5:11 PM 64.4 °F - 53.6 °F 68% 29.51 in 10.0 mi SSE 4.6 mph - N/A   Clear
5:31 PM 62.6 °F - 53.6 °F 72% 29.51 in 10.0 mi SSE 6.9 mph - N/A   Clear
5:51 PM 62.6 °F - 53.6 °F 72% 29.51 in 10.0 mi SSE 6.9 mph - N/A   Clear
6:11 PM 62.6 °F - 53.6 °F 72% 29.52 in 10.0 mi SSE 8.1 mph - N/A   Clear
6:31 PM 64.4 °F - 53.6 °F 68% 29.52 in 10.0 mi South 9.2 mph - N/A   Clear
6:52 PM 64.4 °F - 55.4 °F 73% 29.52 in 10.0 mi South 11.5 mph - N/A   Clear
7:11 PM 64.4 °F - 55.4 °F 73% 29.51 in 10.0 mi South 11.5 mph 17.3 mph N/A   Mostly Cloudy
7:31 PM 64.4 °F - 55.4 °F 73% 29.50 in 10.0 mi South 11.5 mph 16.1 mph N/A   Overcast
7:52 PM 64.4 °F - 55.4 °F 73% 29.49 in 10.0 mi South 11.5 mph - N/A   Overcast
8:11 PM 64.4 °F - 55.4 °F 73% 29.48 in 10.0 mi SSE 12.7 mph 17.3 mph N/A   Scattered Clouds
8:31 PM 64.4 °F - 55.4 °F 73% 29.47 in 10.0 mi SSE 15.0 mph 23.0 mph N/A   Clear
9:31 PM 64.4 °F - 55.4 °F 73% 29.48 in 10.0 mi South 17.3 mph 27.6 mph N/A   Mostly Cloudy
10:11 PM 64.4 °F - 55.4 °F 73% 29.48 in 10.0 mi South 20.7 mph 24.2 mph N/A   Scattered Clouds
10:31 PM 64.4 °F - 55.4 °F 73% 29.47 in 10.0 mi South 19.6 mph 25.3 mph N/A   Mostly Cloudy
10:52 PM 64.4 °F - 55.4 °F 73% 29.48 in 10.0 mi South 18.4 mph 28.8 mph N/A   Overcast
11:31 PM 51.8 °F - 51.8 °F 100% 29.55 in 5.0 mi West 6.9 mph - 0.04 in Rain Heavy Rain
11:52 PM 51.8 °F - 51.8 °F 100% 29.57 in 10.0 mi South 5.8 mph - 0.06 in   Overcast